TimeCDT,TemperatureF,Dew PointF,Humidity,Sea Level PressureIn,VisibilityMPH,Wind Direction,Wind SpeedMPH,Gust SpeedMPH,PrecipitationIn,Events,Conditions,WindDirDegrees,DateUTC
12:52 AM,57.0,50.0,77,30.08,10.0,NE,16.1,23.0,N/A,,Clear,40,2013-09-15 05:52:00
1:52 AM,54.0,48.0,80,30.11,10.0,NE,12.7,-,N/A,,Clear,50,2013-09-15 06:52:00
2:52 AM,52.0,46.9,83,30.15,10.0,NNE,9.2,-,N/A,,Clear,20,2013-09-15 07:52:00
3:52 AM,50.0,46.9,89,30.17,10.0,North,6.9,-,N/A,,Clear,360,2013-09-15 08:52:00
4:52 AM,48.9,45.0,86,30.19,10.0,North,9.2,-,N/A,,Clear,10,2013-09-15 09:52:00
5:52 AM,48.0,44.1,86,30.21,10.0,North,8.1,-,N/A,,Clear,360,2013-09-15 10:52:00
6:52 AM,46.9,44.1,90,30.23,10.0,North,9.2,-,N/A,,Clear,10,2013-09-15 11:52:00
7:52 AM,46.9,43.0,86,30.26,10.0,North,5.8,-,N/A,,Clear,350,2013-09-15 12:52:00
8:52 AM,50.0,44.1,80,30.29,10.0,NNE,5.8,-,N/A,,Clear,30,2013-09-15 13:52:00
9:52 AM,52.0,46.0,80,30.30,10.0,NE,10.4,-,N/A,,Clear,50,2013-09-15 14:52:00
10:52 AM,54.0,46.0,75,30.32,10.0,NE,9.2,-,N/A,,Scattered Clouds,50,2013-09-15 15:52:00
11:52 AM,57.0,46.0,67,30.31,10.0,NE,9.2,-,N/A,,Partly Cloudy,50,2013-09-15 16:52:00
12:52 PM,57.9,46.0,65,30.31,10.0,NNE,9.2,-,N/A,,Partly Cloudy,30,2013-09-15 17:52:00
1:52 PM,61.0,46.9,60,30.32,10.0,NE,5.8,-,N/A,,Clear,50,2013-09-15 18:52:00
2:52 PM,62.1,46.0,56,30.32,10.0,Variable,5.8,-,N/A,,Clear,0,2013-09-15 19:52:00
3:52 PM,63.0,46.0,54,30.31,10.0,ENE,5.8,-,N/A,,Clear,70,2013-09-15 20:52:00
4:52 PM,64.0,44.1,48,30.30,10.0,ESE,9.2,-,N/A,,Clear,110,2013-09-15 21:52:00
5:52 PM,64.9,44.1,47,30.30,10.0,ENE,8.1,-,N/A,,Clear,70,2013-09-15 22:52:00
6:52 PM,63.0,44.1,50,30.30,10.0,ESE,9.2,-,N/A,,Clear,120,2013-09-15 23:52:00
7:52 PM,55.9,45.0,67,30.30,10.0,East,6.9,-,N/A,,Clear,90,2013-09-16 00:52:00
8:52 PM,54.0,45.0,72,30.31,10.0,NE,6.9,-,N/A,,Clear,50,2013-09-16 01:52:00
9:52 PM,50.0,46.0,86,30.32,10.0,East,6.9,-,N/A,,Clear,80,2013-09-16 02:52:00
10:52 PM,48.0,44.1,86,30.31,10.0,East,5.8,-,N/A,,Clear,100,2013-09-16 03:52:00
11:52 PM,48.0,43.0,83,30.31,10.0,East,3.5,-,N/A,,Clear,100,2013-09-16 04:52:00